Weather History for Minneapolis Flying Cloud, MN

Change the Weather History Date:

Sunday, August 12, 2012

  Actual Average Record
Temperature  
Mean Temperature 64 °F -  
Max Temperature 66 °F 78 °F 91 °F (2010)
Min Temperature 60 °F 58 °F 46 °F (2004)
Degree Days  
Heating Degree Days 2    
Growing Degree Days 14 (Base 50)    
Moisture  
Dew Point 58 °F    
Average Humidity 81    
Maximum Humidity 93    
Minimum Humidity 68    
Precipitation  
Precipitation 0.03 in - - ()
Sea Level Pressure  
Sea Level Pressure 30.00 in    
Wind  
Wind Speed 2 mph (WSW)    
Max Wind Speed 6 mph    
Max Gust Speed -    
Visibility 10 miles    
Events Rain    
Averages and records for this station are not official NWS values.
T = Trace of Precipitation, MM = Missing Value Source: NWS Daily Summary

Daily Weather History Graph

Daily Weather History Graph

Search for Another Location

Airport:

Trip Planner

Search our weather history database for the weather conditions in past years. The results will help you decide how hot, cold, wet, or windy it might be!

Date:

Astronomy

Aug. 12, 2012 Rise Set
Actual Time 6:13 AM CDT 8:23 PM CDT
Civil Twilight 5:40 AM CDT 8:55 PM CDT
Nautical Twilight 5:01 AM CDT 9:35 PM CDT
Astronomical Twilight 4:16 AM CDT 10:19 PM CDT
Moon 1:21 AM CDT (8/12) 4:54 PM CDT (8/12)
Length of Visible Light 15h 14m
Length of Day
14h 10m
Waning Crescent, 24% of the Moon is Illuminated
Aug 12
Waning Crescent
Aug 17
New
Aug 24
First Quarter
Aug 31
Full
Sep 8
Last Quarter

Hourly Weather History & Observations

Time (CDT) Temp. Dew Point Humidity Pressure Visibility Wind Dir Wind Speed Gust Speed Precip Events Conditions
12:53 AM 66.0 °F 55.9 °F 70% 30.00 in 10.0 mi Calm Calm - N/A   Clear
1:53 AM 64.9 °F 57.9 °F 78% 29.99 in 10.0 mi Calm Calm - N/A   Clear
2:53 AM 66.0 °F 57.0 °F 73% 29.99 in 10.0 mi Calm Calm - N/A   Partly Cloudy
3:53 AM 64.9 °F 60.1 °F 84% 29.99 in 10.0 mi NE 3.5 mph - N/A   Clear
4:53 AM 64.9 °F 59.0 °F 81% 29.99 in 10.0 mi Calm Calm - N/A   Clear
5:53 AM 63.0 °F 57.9 °F 84% 30.01 in 10.0 mi SW 4.6 mph - N/A   Clear
6:53 AM 64.0 °F 55.0 °F 73% 30.01 in 10.0 mi WSW 4.6 mph - N/A   Overcast
7:53 AM 64.0 °F 55.9 °F 75% 30.01 in 10.0 mi West 3.5 mph - 0.00 in   Overcast
8:53 AM 62.1 °F 57.0 °F 84% 30.00 in 10.0 mi Calm Calm - 0.01 in Rain Light Rain
9:53 AM 64.0 °F 59.0 °F 84% 30.00 in 10.0 mi Calm Calm - 0.00 in Rain Light Rain
10:53 AM 64.9 °F 59.0 °F 81% 30.00 in 10.0 mi West 5.8 mph - 0.00 in Rain Light Rain
11:53 AM 66.0 °F 55.9 °F 70% 30.00 in 10.0 mi Calm Calm - 0.00 in   Overcast
12:53 PM 64.9 °F 60.1 °F 84% 30.00 in 10.0 mi WSW 4.6 mph - N/A   Overcast
1:53 PM 64.9 °F 59.0 °F 81% 30.00 in 10.0 mi SW 3.5 mph - N/A   Overcast
2:53 PM 66.0 °F 55.0 °F 68% 29.99 in 10.0 mi West 3.5 mph - N/A   Overcast
3:53 PM 66.0 °F 55.9 °F 70% 29.99 in 10.0 mi West 3.5 mph - N/A   Overcast
4:53 PM 64.0 °F 57.0 °F 78% 29.99 in 10.0 mi WSW 4.6 mph - 0.00 in Rain Light Rain
5:53 PM 63.0 °F 57.9 °F 84% 29.99 in 10.0 mi WSW 5.8 mph - 0.01 in Rain Light Rain
6:53 PM 63.0 °F 60.1 °F 90% 29.99 in 10.0 mi SW 4.6 mph - 0.01 in Rain Light Rain
7:53 PM 62.1 °F 60.1 °F 93% 29.99 in 10.0 mi WSW 3.5 mph - 0.00 in   Overcast
8:53 PM 62.1 °F 59.0 °F 90% 30.01 in 10.0 mi WSW 4.6 mph - N/A   Overcast
9:53 PM 61.0 °F 59.0 °F 93% 30.01 in 10.0 mi WSW 3.5 mph - N/A   Overcast
10:53 PM 61.0 °F 59.0 °F 93% 30.02 in 10.0 mi SW 3.5 mph - N/A   Mostly Cloudy
11:53 PM 60.1 °F 57.9 °F 93% 30.01 in 10.0 mi SW 3.5 mph - N/A   Clear